This demonstration page uses our WeatherBlox Daily Observations layout. Learn more.

Left ArrowRight Arrow

34.02893, -84.19858

Hourly Observations for April 17, 2022

Temp ( °F °C ) Dew Point ( °F °C ) Humidity (%) Winds ( mph kmh ) Pressure ( in mb ) Visibility ( mi km ) Precip ( " mm )
12:53 am 00:53 Mostly Cloudy 61 16.1 60 15.6 97 97 Calm 30.02 1017 7 11 0.00 0.00
1:18 am 01:18 Partly Cloudy with Mist and Fog 59 15 58 14.4 96 96 Calm 30.03 1017 2 3 0.00 0.00
1:23 am 01:23 Mostly Clear with Mist and Fog 59 15 58 14.4 96 96 Calm 30.02 1017 3 5 0.00 0.00
1:40 am 01:40 Clear with Mist and Fog 58 14.4 58 14.4 100 100 Calm 30.02 1017 3 4 0.00 0.00
1:48 am 01:48 Clear with Mist and Fog 59 15 59 15 100 100 Calm 30.01 1016 5 8 0.00 0.00
1:53 am 01:53 Clear with Mist and Fog 59 15 59 15 100 100 Calm 30.01 1016 5 8 0.00 0.00
2:08 am 02:08 Clear with Mist and Fog 59 15 58 14.4 96 96 Calm 30.01 1016 2 3 0.00 0.00
2:27 am 02:27 Clear with Mist and Fog 57 13.9 57 13.9 100 100 Calm 30.01 1016 1 1 0.00 0.00
2:40 am 02:40 Mostly Cloudy with Fog 57 13.9 57 13.9 100 100 Calm 30.01 1016 1 1 0.00 0.00
2:45 am 02:45 Clear with Mist and Fog 57 13.9 57 13.9 100 100 Calm 30.01 1016 1 1 0.00 0.00
2:53 am 02:53 Mostly Cloudy with Mist and Fog 57 13.9 57 13.9 100 100 Calm 29.99 1016 1 1 0.00 0.00
3:01 am 03:01 Mostly Cloudy with Fog 57 13.9 57 13.9 100 100 Calm 30.00 1016 1 1 0.00 0.00
3:06 am 03:06 Mostly Cloudy with Fog 56 13.3 56 13.3 100 100 Calm 30.00 1016 0 0 0.00 0.00
3:32 am 03:32 Mostly Cloudy with Mist and Fog 57 13.9 57 13.9 100 100 S 3 6 30.00 1016 1 1 0.00 0.00
3:35 am 03:35 Partly Cloudy with Mist and Fog 56 13.3 56 13.3 100 100 S 3 6 30.00 1016 2 3 0.00 0.00
3:46 am 03:46 Mostly Cloudy with Mist and Fog 57 13.9 57 13.9 100 100 SSW 3 6 30.00 1016 1 2 0.00 0.00
3:51 am 03:51 Clear with Fog 57 14 57 14 100 100 Calm 30.00 1016 1 1 0.00 0.00
3:53 am 03:53 Clear with Fog 57 13.9 57 13.9 100 100 Calm 29.98 1015 1 1 0.00 0.00
3:59 am 03:59 Clear with Mist and Fog 57 13.9 57 13.9 100 100 Calm 29.99 1015 1 2 0.00 0.00
4:14 am 04:14 Clear with Mist and Fog 57 13.9 57 13.9 100 100 Calm 29.99 1015 3 4 0.00 0.00
4:25 am 04:25 Mostly Cloudy with Mist and Fog 56 13.3 56 13.3 100 100 Calm 29.99 1016 1 1 0.00 0.00
4:29 am 04:29 Mostly Cloudy with Fog 56 13.3 56 13.3 100 100 Calm 29.99 1016 0 0 0.00 0.00
4:40 am 04:40 Mostly Cloudy with Fog 57 13.9 57 13.9 100 100 Calm 30.00 1016 0 0 0.00 0.00
4:53 am 04:53 Mostly Cloudy with Fog 53 11.7 53 11.7 100 100 Calm 29.98 1015 0 0 0.00 0.00
5:23 am 05:23 Cloudy with Mist and Fog 56 13.3 56 13.3 100 100 Calm 30.00 1016 1 1 0.00 0.00
5:26 am 05:26 Cloudy with Mist and Fog 57 13.9 57 13.9 100 100 Calm 30.00 1016 2 3 0.00 0.00
5:34 am 05:34 Cloudy with Mist and Fog 58 14.4 58 14.4 100 100 Calm 29.99 1016 2 3 0.00 0.00
5:40 am 05:40 Cloudy with Fog 59 15 59 15 100 100 Calm 29.99 1016 1 1 0.00 0.00
5:53 am 05:53 Mostly Cloudy with Fog 59 15 59 15 100 100 W 6 9 29.98 1015 0 0 0.00 0.00
6:26 am 06:26 Mostly Cloudy with Fog 58 14.4 58 14.4 100 100 WNW 5 7 30.00 1016 1 1 0.00 0.00
6:37 am 06:37 Mostly Cloudy with Fog 58 14.4 58 14.4 100 100 WNW 3 6 30.00 1016 0 0 0.00 0.00
6:46 am 06:46 Mostly Cloudy with Fog 58 14.4 58 14.4 100 100 WNW 5 7 30.00 1016 1 1 0.00 0.00
6:53 am 06:53 Mostly Cloudy with Fog 58 14.4 58 14.4 100 100 NW 5 7 29.99 1016 1 1 0.00 0.00
7:00 am 07:00 Mostly Cloudy with Mist and Fog 58 14.4 58 14.4 100 100 WNW 5 7 30.00 1016 1 1 0.00 0.00
7:10 am 07:10 Cloudy with Mist and Fog 58 14.4 58 14.4 100 100 NW 5 7 30.01 1016 1 2 0.00 0.00
7:53 am 07:53 Cloudy with Mist and Fog 58 14.4 58 14.4 100 100 W 3 6 30.01 1016 1 2 0.00 0.00
8:53 am 08:53 Cloudy with Mist and Fog 58 14.4 58 14.4 100 100 Calm 30.02 1017 2 3 0.00 0.00
9:13 am 09:13 Cloudy with Mist and Fog 59 15 59 15 100 100 N 3 6 30.02 1017 3 5 0.00 0.00
9:29 am 09:29 Cloudy with Mist and Fog 59 15 59 15 100 100 WNW 5 7 30.03 1017 3 5 0.00 0.00
9:53 am 09:53 Cloudy with Mist and Fog 59 15 59 15 100 100 WNW 6 9 30.03 1017 3 5 0.00 0.00
10:01 am 10:01 Cloudy with Mist and Fog 60 15.6 58 14.4 93 93 VRB 3 6 30.04 1017 1 2 0.00 0.00
10:22 am 10:22 Cloudy with Mist and Fog 61 16.1 59 15 93 93 N 5 7 30.04 1017 4 6 0.00 0.00
10:53 am 10:53 Cloudy with Mist and Fog 63 17.2 59 15 87 87 Calm 30.03 1017 4 6 0.00 0.00
11:15 am 11:15 Partly Cloudy 66 18.9 60 15.6 81 81 W 5 7 30.03 1017 9 14 0.00 0.00
11:53 am 11:53 Sunny 70 21.1 60 15.6 71 71 Calm 30.02 1017 10 16 0.00 0.00
12:53 pm 12:53 Sunny 72 22.2 60 15.6 66 66 VRB 3 6 30.01 1016 10 16 0.00 0.00
1:53 pm 13:53 Sunny 73 22.8 57 13.9 57 57 WNW 6 9 30.00 1016 10 16 0.00 0.00
2:53 pm 14:53 Sunny 72 22.2 53 11.7 52 52 WNW 7 11 29.98 1015 10 16 0.00 0.00
3:53 pm 15:53 Mostly Cloudy 71 21.7 52 11.1 51 51 WSW 3 6 29.96 1015 10 16 0.00 0.00
4:53 pm 16:53 Cloudy 72 22.2 54 12.2 53 53 Calm 29.94 1014 10 16 0.00 0.00
5:53 pm 17:53 Mostly Cloudy 72 22.2 56 13.3 57 57 Calm 29.91 1013 10 16 0.00 0.00
6:53 pm 18:53 Cloudy 72 22.2 54 12.2 53 53 S 6 9 29.92 1013 10 16 0.00 0.00
7:53 pm 19:53 Cloudy 69 20.6 57 13.9 66 66 SE 3 6 29.92 1013 10 16 0.00 0.00
8:53 pm 20:53 Cloudy 65 18.3 57 13.9 76 76 Calm 29.91 1013 10 16 0.00 0.00
9:53 pm 21:53 Clear 64 17.8 57 13.9 78 78 Calm 29.92 1013 10 16 0.00 0.00
10:53 pm 22:53 Clear 62 16.7 58 14.4 86 86 Calm 29.92 1013 10 16 0.00 0.00
11:53 pm 23:53 Partly Cloudy 62 16.7 58 14.4 86 86 Calm 29.91 1013 10 16 0.00 0.00

Powered by AerisWeather